Time,TemperatureF,DewpointF,PressureIn,WindDirection,WindDirectionDegrees,WindSpeedMPH,WindSpeedGustMPH,Humidity,HourlyPrecipIn,Conditions,Clouds,dailyrainin,SoftwareType,DateUTC
2013-05-20 00:05:00,32.3,31.0,29.77,West,279,7.0,-999.0,96,-99.99,,,0.00,weatherlink.com 1.10,2013-05-20 06:05:00,
2013-05-20 00:20:00,32.2,31.0,29.78,WNW,298,7.0,-999.0,96,-99.99,,,0.00,weatherlink.com 1.10,2013-05-20 06:20:00,
2013-05-20 00:35:00,32.2,31.0,29.78,WNW,282,5.0,-999.0,96,-99.99,,,0.00,weatherlink.com 1.10,2013-05-20 06:35:00,
2013-05-20 00:50:00,32.1,31.0,29.77,NW,308,8.0,-999.0,96,-99.99,,,0.00,weatherlink.com 1.10,2013-05-20 06:50:00,
2013-05-20 01:06:00,32.1,31.0,29.77,West,265,9.0,-999.0,96,-99.99,,,0.00,weatherlink.com 1.10,2013-05-20 07:06:00,
2013-05-20 01:21:00,31.9,31.0,29.77,West,280,10.0,-999.0,96,-99.99,,,0.00,weatherlink.com 1.10,2013-05-20 07:21:00,
2013-05-20 01:36:00,31.7,31.0,29.77,WNW,299,8.0,-999.0,96,-99.99,,,0.00,weatherlink.com 1.10,2013-05-20 07:36:00,
2013-05-20 01:51:00,31.4,30.0,29.77,West,261,7.0,-999.0,96,-99.99,,,0.00,weatherlink.com 1.10,2013-05-20 07:51:00,
2013-05-20 02:06:00,31.0,30.0,29.76,WNW,282,7.0,-999.0,96,-99.99,,,0.00,weatherlink.com 1.10,2013-05-20 08:06:00,
2013-05-20 02:21:00,31.1,30.0,29.77,NW,304,8.0,-999.0,96,-99.99,,,0.00,weatherlink.com 1.10,2013-05-20 08:21:00,
2013-05-20 02:28:00,31.1,30.0,29.78,NW,317,6.0,-999.0,96,-99.99,,,0.00,weatherlink.com 1.10,2013-05-20 08:28:00,
2013-05-20 02:40:00,31.0,30.0,29.78,WNW,290,6.0,-999.0,96,-99.99,,,0.00,weatherlink.com 1.10,2013-05-20 08:40:00,
2013-05-20 02:56:00,31.0,30.0,29.78,WNW,292,5.0,-999.0,97,-99.99,,,0.00,weatherlink.com 1.10,2013-05-20 08:56:00,
2013-05-20 03:11:00,30.7,30.0,29.78,West,281,8.0,-999.0,96,-99.99,,,0.00,weatherlink.com 1.10,2013-05-20 09:11:00,
2013-05-20 03:27:00,30.6,30.0,29.78,WNW,292,4.0,-999.0,96,-99.99,,,0.00,weatherlink.com 1.10,2013-05-20 09:27:00,
2013-05-20 03:41:00,30.7,30.0,29.78,West,270,4.0,-999.0,96,-99.99,,,0.00,weatherlink.com 1.10,2013-05-20 09:41:00,
2013-05-20 03:56:00,30.9,30.0,29.78,WNW,291,4.0,-999.0,97,-99.99,,,0.00,weatherlink.com 1.10,2013-05-20 09:56:00,
2013-05-20 04:11:00,30.8,30.0,29.78,West,281,4.0,-999.0,96,-99.99,,,0.00,weatherlink.com 1.10,2013-05-20 10:11:00,
2013-05-20 04:27:00,30.6,30.0,29.78,WNW,294,4.0,-999.0,96,-99.99,,,0.00,weatherlink.com 1.10,2013-05-20 10:27:00,
2013-05-20 04:42:00,30.7,30.0,29.78,NW,313,7.0,-999.0,96,-99.99,,,0.00,weatherlink.com 1.10,2013-05-20 10:42:00,
2013-05-20 04:57:00,30.7,30.0,29.79,West,278,4.0,-999.0,96,-99.99,,,0.00,weatherlink.com 1.10,2013-05-20 10:57:00,
2013-05-20 05:12:00,30.5,30.0,29.78,West,262,4.0,-999.0,97,-99.99,,,0.00,weatherlink.com 1.10,2013-05-20 11:12:00,
2013-05-20 05:19:00,30.5,30.0,29.79,WNW,294,5.0,-999.0,97,-99.99,,,0.00,weatherlink.com 1.10,2013-05-20 11:19:00,
2013-05-20 05:32:00,30.4,30.0,29.79,WNW,302,5.0,-999.0,97,-99.99,,,0.00,weatherlink.com 1.10,2013-05-20 11:32:00,
2013-05-20 05:47:00,30.3,30.0,29.80,NW,306,3.0,-999.0,97,-99.99,,,0.00,weatherlink.com 1.10,2013-05-20 11:47:00,
2013-05-20 06:02:00,30.3,30.0,29.80,WSW,257,6.0,-999.0,97,-99.99,,,0.00,weatherlink.com 1.10,2013-05-20 12:02:00,
2013-05-20 06:17:00,30.0,29.0,29.80,WNW,282,4.0,-999.0,97,-99.99,,,0.00,weatherlink.com 1.10,2013-05-20 12:17:00,
2013-05-20 06:32:00,30.0,29.0,29.80,West,260,7.0,-999.0,97,-99.99,,,0.00,weatherlink.com 1.10,2013-05-20 12:32:00,
2013-05-20 06:47:00,29.6,29.0,29.80,West,263,9.0,-999.0,97,-99.99,,,0.00,weatherlink.com 1.10,2013-05-20 12:47:00,
2013-05-20 07:03:00,29.5,29.0,29.79,WNW,296,6.0,-999.0,96,-99.99,,,0.00,weatherlink.com 1.10,2013-05-20 13:03:00,
2013-05-20 07:18:00,29.6,29.0,29.78,SSW,201,11.0,-999.0,97,-99.99,,,0.00,weatherlink.com 1.10,2013-05-20 13:18:00,
2013-05-20 07:33:00,29.8,29.0,29.78,NW,305,10.0,-999.0,97,-99.99,,,0.00,weatherlink.com 1.10,2013-05-20 13:33:00,
2013-05-20 07:48:00,30.2,29.0,29.79,West,281,10.0,-999.0,96,-99.99,,,0.00,weatherlink.com 1.10,2013-05-20 13:48:00,
2013-05-20 08:03:00,30.7,30.0,29.80,West,274,9.0,-999.0,96,-99.99,,,0.00,weatherlink.com 1.10,2013-05-20 14:03:00,
2013-05-20 08:18:00,31.4,31.0,29.81,WNW,282,5.0,-999.0,97,-99.99,,,0.00,weatherlink.com 1.10,2013-05-20 14:18:00,
2013-05-20 08:34:00,31.8,31.0,29.81,WNW,291,5.0,-999.0,97,-99.99,,,0.00,weatherlink.com 1.10,2013-05-20 14:34:00,
2013-05-20 08:49:00,32.0,31.0,29.82,West,264,6.0,-999.0,97,-99.99,,,0.00,weatherlink.com 1.10,2013-05-20 14:49:00,
2013-05-20 09:04:00,32.2,32.0,29.82,WSW,252,13.0,-999.0,97,-99.99,,,0.00,weatherlink.com 1.10,2013-05-20 15:04:00,
2013-05-20 09:19:00,32.4,32.0,29.82,WSW,254,10.0,-999.0,97,-99.99,,,0.00,weatherlink.com 1.10,2013-05-20 15:19:00,
2013-05-20 09:34:00,32.6,32.0,29.82,WNW,302,4.0,-999.0,97,-99.99,,,0.00,weatherlink.com 1.10,2013-05-20 15:34:00,
2013-05-20 09:49:00,33.0,32.0,29.83,NW,311,4.0,-999.0,97,-99.99,,,0.01,weatherlink.com 1.10,2013-05-20 15:49:00,
2013-05-20 10:05:00,33.2,33.0,29.83,NW,304,3.0,-999.0,97,-99.99,,,0.02,weatherlink.com 1.10,2013-05-20 16:05:00,
2013-05-20 10:20:00,33.4,33.0,29.83,WNW,286,5.0,-999.0,97,-99.99,,,0.02,weatherlink.com 1.10,2013-05-20 16:20:00,
2013-05-20 10:35:00,33.7,33.0,29.83,NNW,328,3.0,-999.0,97,-99.99,,,0.03,weatherlink.com 1.10,2013-05-20 16:35:00,
2013-05-20 10:50:00,34.3,34.0,29.83,WNW,302,5.0,-999.0,97,-99.99,,,0.03,weatherlink.com 1.10,2013-05-20 16:50:00,
2013-05-20 11:05:00,34.9,34.0,29.83,WNW,287,5.0,-999.0,97,-99.99,,,0.04,weatherlink.com 1.10,2013-05-20 17:05:00,
2013-05-20 11:21:00,36.5,36.0,29.83,NNW,335,4.0,-999.0,97,-99.99,,,0.04,weatherlink.com 1.10,2013-05-20 17:21:00,
2013-05-20 11:36:00,37.1,36.0,29.83,North,5,2.0,-999.0,96,-99.99,,,0.04,weatherlink.com 1.10,2013-05-20 17:36:00,
2013-05-20 11:51:00,35.7,34.0,29.83,North,360,4.0,-999.0,95,-99.99,,,0.04,weatherlink.com 1.10,2013-05-20 17:51:00,
2013-05-20 12:06:00,35.5,35.0,29.83,NW,319,1.0,-999.0,96,-99.99,,,0.04,weatherlink.com 1.10,2013-05-20 18:06:00,
2013-05-20 12:21:00,36.9,36.0,29.83,West,279,3.0,-999.0,96,-99.99,,,0.04,weatherlink.com 1.10,2013-05-20 18:21:00,
2013-05-20 12:36:00,38.8,38.0,29.83,NW,320,2.0,-999.0,95,-99.99,,,0.04,weatherlink.com 1.10,2013-05-20 18:36:00,
2013-05-20 12:52:00,39.1,37.0,29.83,WSW,252,8.0,-999.0,91,-99.99,,,0.04,weatherlink.com 1.10,2013-05-20 18:52:00,
2013-05-20 13:07:00,39.5,37.0,29.83,NW,315,2.0,-999.0,89,-99.99,,,0.04,weatherlink.com 1.10,2013-05-20 19:07:00,
2013-05-20 13:22:00,38.9,36.0,29.83,WSW,252,5.0,-999.0,89,-99.99,,,0.04,weatherlink.com 1.10,2013-05-20 19:22:00,
2013-05-20 13:37:00,37.3,34.0,29.84,NE,54,4.0,-999.0,88,-99.99,,,0.04,weatherlink.com 1.10,2013-05-20 19:37:00,
2013-05-20 13:52:00,39.5,35.0,29.84,NW,316,9.0,-999.0,83,-99.99,,,0.04,weatherlink.com 1.10,2013-05-20 19:52:00,
2013-05-20 14:07:00,39.2,34.0,29.85,NW,320,5.0,-999.0,80,-99.99,,,0.04,weatherlink.com 1.10,2013-05-20 20:07:00,
2013-05-20 14:23:00,37.6,33.0,29.85,WSW,239,8.0,-999.0,83,-99.99,,,0.04,weatherlink.com 1.10,2013-05-20 20:23:00,
2013-05-20 14:38:00,39.9,35.0,29.86,NW,304,8.0,-999.0,83,-99.99,,,0.04,weatherlink.com 1.10,2013-05-20 20:38:00,
2013-05-20 14:53:00,39.3,33.0,29.87,WNW,302,9.0,-999.0,78,-99.99,,,0.04,weatherlink.com 1.10,2013-05-20 20:53:00,
2013-05-20 15:08:00,38.2,31.0,29.88,North,355,8.0,-999.0,76,-99.99,,,0.04,weatherlink.com 1.10,2013-05-20 21:08:00,
2013-05-20 15:23:00,38.4,32.0,29.88,NNW,327,4.0,-999.0,77,-99.99,,,0.04,weatherlink.com 1.10,2013-05-20 21:23:00,
2013-05-20 15:39:00,38.6,31.0,29.88,NNW,331,6.0,-999.0,74,-99.99,,,0.04,weatherlink.com 1.10,2013-05-20 21:39:00,
2013-05-20 15:54:00,36.8,32.0,29.88,NNW,332,5.0,-999.0,84,-99.99,,,0.04,weatherlink.com 1.10,2013-05-20 21:54:00,
2013-05-20 16:09:00,36.0,31.0,29.89,NNW,328,6.0,-999.0,82,-99.99,,,0.04,weatherlink.com 1.10,2013-05-20 22:09:00,
2013-05-20 16:24:00,37.3,31.0,29.89,NNW,331,7.0,-999.0,78,-99.99,,,0.04,weatherlink.com 1.10,2013-05-20 22:24:00,
2013-05-20 16:39:00,35.9,29.0,29.89,NW,311,6.0,-999.0,77,-99.99,,,0.04,weatherlink.com 1.10,2013-05-20 22:39:00,
2013-05-20 16:55:00,36.4,29.0,29.90,NNE,30,4.0,-999.0,75,-99.99,,,0.04,weatherlink.com 1.10,2013-05-20 22:55:00,
2013-05-20 17:10:00,36.1,29.0,29.90,NW,319,7.0,-999.0,75,-99.99,,,0.04,weatherlink.com 1.10,2013-05-20 23:10:00,
2013-05-20 17:25:00,35.7,29.0,29.91,NW,315,8.0,-999.0,77,-99.99,,,0.04,weatherlink.com 1.10,2013-05-20 23:25:00,
2013-05-20 17:40:00,34.8,29.0,29.90,WNW,291,17.0,-999.0,80,-99.99,,,0.04,weatherlink.com 1.10,2013-05-20 23:40:00,
2013-05-20 17:55:00,34.4,30.0,29.91,NW,321,12.0,-999.0,83,-99.99,,,0.04,weatherlink.com 1.10,2013-05-20 23:55:00,
2013-05-20 18:10:00,34.6,29.0,29.90,NNW,329,6.0,-999.0,81,-99.99,,,0.04,weatherlink.com 1.10,2013-05-21 00:10:00,
2013-05-20 18:25:00,35.0,29.0,29.91,North,360,4.0,-999.0,78,-99.99,,,0.04,weatherlink.com 1.10,2013-05-21 00:25:00,
2013-05-20 18:41:00,35.0,28.0,29.91,NNW,347,8.0,-999.0,77,-99.99,,,0.04,weatherlink.com 1.10,2013-05-21 00:41:00,
2013-05-20 18:56:00,35.0,28.0,29.92,WNW,298,6.0,-999.0,76,-99.99,,,0.04,weatherlink.com 1.10,2013-05-21 00:56:00,
2013-05-20 19:12:00,34.8,27.0,29.92,NNW,336,4.0,-999.0,74,-99.99,,,0.04,weatherlink.com 1.10,2013-05-21 01:12:00,
2013-05-20 19:26:00,34.2,26.0,29.92,NW,321,6.0,-999.0,72,-99.99,,,0.00,weatherlink.com 1.10,2013-05-21 01:26:00,
2013-05-20 19:41:00,34.1,26.0,29.93,NNE,20,3.0,-999.0,73,-99.99,,,0.00,weatherlink.com 1.10,2013-05-21 01:41:00,
2013-05-20 19:56:00,34.1,26.0,29.94,North,355,4.0,-999.0,73,-99.99,,,0.00,weatherlink.com 1.10,2013-05-21 01:56:00,
2013-05-20 20:12:00,34.0,27.0,29.94,NW,323,5.0,-999.0,75,-99.99,,,0.00,weatherlink.com 1.10,2013-05-21 02:12:00,
2013-05-20 20:27:00,33.5,28.0,29.93,WNW,297,11.0,-999.0,80,-99.99,,,0.00,weatherlink.com 1.10,2013-05-21 02:27:00,
2013-05-20 20:42:00,32.9,28.0,29.94,WNW,288,5.0,-999.0,82,-99.99,,,0.00,weatherlink.com 1.10,2013-05-21 02:42:00,
2013-05-20 20:57:00,32.9,28.0,29.95,WSW,258,6.0,-999.0,82,-99.99,,,0.00,weatherlink.com 1.10,2013-05-21 02:57:00,
2013-05-20 21:13:00,32.7,28.0,29.94,NW,311,4.0,-999.0,81,-99.99,,,0.00,weatherlink.com 1.10,2013-05-21 03:13:00,
2013-05-20 21:27:00,32.1,26.0,29.95,NNW,339,9.0,-999.0,79,-99.99,,,0.00,weatherlink.com 1.10,2013-05-21 03:27:00,
2013-05-20 21:43:00,32.0,25.0,29.96,NNW,330,6.0,-999.0,74,-99.99,,,0.00,weatherlink.com 1.10,2013-05-21 03:43:00,
2013-05-20 21:58:00,31.8,24.0,29.97,WNW,297,6.0,-999.0,73,-99.99,,,0.00,weatherlink.com 1.10,2013-05-21 03:58:00,
2013-05-20 22:13:00,31.1,25.0,29.97,WNW,300,7.0,-999.0,79,-99.99,,,0.00,weatherlink.com 1.10,2013-05-21 04:13:00,
2013-05-20 22:28:00,31.2,24.0,29.98,WNW,303,10.0,-999.0,75,-99.99,,,0.00,weatherlink.com 1.10,2013-05-21 04:28:00,
2013-05-20 22:43:00,31.0,24.0,29.98,NW,307,6.0,-999.0,75,-99.99,,,0.00,weatherlink.com 1.10,2013-05-21 04:43:00,
2013-05-20 23:00:00,30.5,23.0,29.98,WNW,295,12.0,-999.0,75,-99.99,,,0.00,weatherlink.com 1.10,2013-05-21 05:00:00,
2013-05-20 23:14:00,30.4,23.0,29.98,WSW,256,14.0,-999.0,75,-99.99,,,0.00,weatherlink.com 1.10,2013-05-21 05:14:00,
2013-05-20 23:29:00,30.1,23.0,29.98,NW,313,10.0,-999.0,76,-99.99,,,0.00,weatherlink.com 1.10,2013-05-21 05:29:00,
2013-05-20 23:44:00,30.1,24.0,29.98,NW,321,8.0,-999.0,77,-99.99,,,0.00,weatherlink.com 1.10,2013-05-21 05:44:00,
2013-05-20 23:59:00,29.9,24.0,29.98,NW,318,7.0,-999.0,78,-99.99,,,0.00,weatherlink.com 1.10,2013-05-21 05:59:00,